EGJJLFRD

Guest
Details From EGJJ - Jersey
To LFRD - Dinard Pleurtuit-St Malo
Flight Number -
Tags generated
Created
Modified
Stats Distance 38 nm / 70 km
Max Altitude 0 ft / 0 m
Waypoints 3
Social Downloads 2
Likes 0
Share VATSIM

Download

Looking for another format? Having issues loading an existing format? Contact us
Advertisement - Login to hide

Notes

Basic altitude profile: - Ascent Rate: 2500ft/min - Ascent Speed: 250kts - Cruise Altitude: 35000ft - Cruise Speed: 420kts - Descent Rate: 1500ft/min - Descent Speed: 250kts Options: - Use NATs: yes - Use PACOTS: yes - Use low airways: yes - Use high airways: yes

Route

EGJJ DIN LFRD

ID Type Via Altitude Latitude Longitude Leg Dist Tot Dist Heading (true) Name
O EGJJ APT - 0 ft / 0 m 49.20796˚ -2.19529˚ - 0 nm - Jersey
DIN VOR - 0 ft / 0 m 48.58606˚ -2.08233˚ 37 nm 37 nm 173° / 173° DINARD PLEURTUIT SAINT MALO VO
O LFRD APT - 0 ft / 0 m 48.58798˚ -2.07992˚ 0 nm 37 nm 40° / 40° Dinard Pleurtuit-St Malo

Altitude Profile

Advertisement - Login to hide

EGJJ

Details ICAO EGJJ (JER)
Name Jersey
Region United Kingdom
Timezone Europe/Jersey (UTC+1.0)
Stats Elevation 277 ft / 84 m (AMSL)
Location 49.207964° -2.195294°
Runways 1
Magnetic Variation 0.841° W

METAR

EGJJ 241320Z 31003KT 8000 FEW008 BKN010 17/13 Q1018

Decode

TAF

Not found

Departure Runways

ID Width Length Bearing (true) Bearing (mag) Surface Threshold Offset Overrun Length
09 151 ft / 46 m 5,593 ft / 1,705 m 82.73° 83.57° Asphalt 200 ft / 61 m 0 ft / 0 m
27 151 ft / 46 m 5,593 ft / 1,705 m 262.74° 263.58° Asphalt 302 ft / 92 m 0 ft / 0 m

LFRD

Details ICAO LFRD (DNR)
Name Dinard Pleurtuit-St Malo
Region France
Timezone Europe/Paris (UTC+2.0)
Stats Elevation 216 ft / 66 m (AMSL)
Location 48.587983° -2.079916°
Runways 2
Magnetic Variation 0.737° W

METAR

LFRD 241330Z AUTO 33006KT 270V360 9000 BKN012 17/13 Q1018 BECMG SCT020

Decode

TAF

TAF LFRD 241100Z 2412/2512 36008KT 6000 OVC010 BECMG 2412/2414 SCT020 BECMG 2419/2421 30005KT BECMG 2421/2423 3000 BR BKN003 BECMG 2507/2509 9999 NSW BKN008 BECMG 2510/2512 35010KT

Decode

Destination Runways

ID Width Length Bearing (true) Bearing (mag) Surface Threshold Offset Overrun Length
12 148 ft / 45 m 4,909 ft / 1,496 m 115.13° 115.87° Asphalt 0 ft / 0 m 0 ft / 0 m
17 148 ft / 45 m 7,199 ft / 2,194 m 170.09° 170.83° Asphalt 0 ft / 0 m 0 ft / 0 m
30 148 ft / 45 m 4,909 ft / 1,496 m 295.14° 295.88° Asphalt 669 ft / 204 m 0 ft / 0 m
35 148 ft / 45 m 7,199 ft / 2,194 m 350.10° 350.84° Asphalt 0 ft / 0 m 0 ft / 0 m

Approach Navaids

Runway Type Ident Frequency Range Bearing (true) Bearing (mag) Slope Elevation
35 Localiser DR 110.75 MHz 27 nm / 50 km 350.08° 350.82° - 216 ft / 66 m (AMSL)
35 Glidescope DR 110.75 MHz 27 nm / 50 km 350.08° 350.82° 3.00° 216 ft / 66 m (AMSL)
35 DME DR 110.75 MHz 27 nm / 50 km - - - 216 ft / 66 m (AMSL)

Popular Alternatives